Location: Fauquembergues
(50.6005°N, 2.0987°E)
Time: 21:04:46
(UTC+00:00)

Meteor 2-4 Rocket - Pass Details

Date: 14 July 2020
Orbit: 799 x 908 km, 81.2° (Epoch: 14 August)

Event Time Altitude Azimuth Distance (km) Brightness Sun altitude
Rises 01:55:18 0° 344° (NNW) 3,551 7.7 -13.2°
Reaches altitude 10° 01:57:49 10° 341° (NNW) 2,605 6.9 -13.1°
Maximum altitude 02:03:37 56° 265° (W) 1,071 4.0 -12.6°
Enters shadow 02:08:30 14° 191° (S) 2,263 5.3 -12.2°
